SCP
0 0 0 0 0 0 0 0 0 0 0 0 0 0 0 0 0 0 0 0 -0 -0 0 0 -0 -0 -0 -0 -0 -0 -0 -0 -0 -0 -0 -0 -0 -0 -0 -0 -0 -0 -0 -0 -0 -0 -0 -0 0
0 0 0 0 0 0 0 0 0 0 0 0 0 0 0 0 0 0 0 0 -0 -0 0 0 -0 -0 -0 -0 -0 -0 -0 -0 -0 -0 -0 -0 -0 -0 -0 -0 -0 -0 0 0 -0 -0 -0 -0 -0
0 0 0 0 0 0 0 0 0 0 0 0 0 0 0 0 0 0 0 0 0 0 0 0 -0 -0 -0 -0 -0 -0 -0 -0 -0 -0 -0 -0 -0 -0 -0 -0 -0 -0 -0 -0 0 0 0 0 0
0 0 0 0 0 0 0 0 0 0 0 0 0 0 0 0 0 0 0 0 0 0 0 0 -0 -0 -0 -0 -0 -0 -0 -0 -0 -0 -0 -0 -0 -0 0 0 0 0 0 0 0 0 0 0 0
0 0 0 0 0 0 0 0 -0 0 0 0 0 0 0 0 0 0 -0 0 0 0 0 0 0 -0 -0 -0 0 0 -0 -0 -0 -0 0 0 0 0 0 0 0 0 0 0 0 0 0 0 0
0 0 0 0 0 0 0 0 0 0 0 0 0 0 0 0 0 0 0 0 0 0 0 0 0 0 0 0 0 0 0 0 0 0 0 0 0 0 0 0 0 0 0 0 0 0 0 0 0
0 0 0 0 0 0 0 0 0 0 0 0 0 0 0 0 0 0 0 0 0 0 0 0 0 0 0 0 0 0 0 0 0 0 0 0 0 0 0 0 0 0 0 0 0 0 0 0 0
0 0 0 0 0 0 0 0 0 0 0 0 0 0 0 0 0 0 0 0 0 0 0 0 0 0 0 0 0 0 0 0 0 0 0 0 0 0 0 0 0 0 0 0 0 0 0 0 0
0 0 0 0 0 0 0 0 0 0 0 0 0 0 0 0 0 0 0 0 0 0 0 0 0 0 0 0 0 0 0 0 0 0 0 0 0 0 0 0 0 0 0 0 0 0 0 0 0
0 0 0 0 0 0 0 0 0 0 0 0 0 0 0 0 0 -0 0 0 0 0 0 0 0 0 0 0 0 0 0 0 0 0 0 0 0 0 0 0 0 0 0 0 0 0 0 0 0
0 0 0 0 0 0 0 0 0 0 0 0 0 0 0 0 0 0 0 0 -0 0 0 0 0 0 0 0 0 0 0 0 0 0 0 0 0 0 0 0 0 0 0 0 0 0 0 0 0
0 0 0 0 0 0 0 0 0 0 0 0 0 0 0 0 0 0 0 0 0 0 0 0 0 0 0 0 0 0 0 0 0 0 0 0 0 0 0 0 0 0 0 0 0 0 0 0 0
0 0 0 0 0 0 0 0 0 0 0 0 0 0 0 0 0 0 0 0 0 0 0 0 0 0 0 0 0 0 0 0 0 0 0 0 0 0 0 0 0 0 0 0 0 0 0 0 0
0 0 0 0 0 0 0 0 0 0 0 0 0 0 0 0 0 0 0 0 0 0 0 0 0 0 0 0 0 0 0 0 0 0 0 0 0 0 0 0 0 0 0 0 0 0 0 0 0
0 0 0 0 0 0 0 0 0 0 0 0 0 0 0 0 0 0 0 0 0 0 0 0 0 0 0 0 0 0 0 0 0 0 0 0 0 0 0 0 0 0 0 0 0 0 0 0 0
0 0 0 0 0 0 0 0 0 0 0 0 0 0 0 0 0 0 0 0 0 0 0 0 0 0 0 0 0 0 0 0 0 0 0 0 0 0 0 0 0 0 0 0 0 0 0 0 0
0 0 0 0 0 0 0 0 0 0 0 0 0 0 0 0 0 0 0 0 0 0 0 0 0 0 0 0 0 0 0 0 0 0 0 0 0 0 0 0 0 0 0 0 0 0 0 0 0
0 0 0 0 0 0 0 0 0 0 0 0 0 0 0 0 0 0 0 0 0 0 0 0 0 0 0 0 0 0 0 0 0 0 0 0 0 0 0 0 0 0 0 0 0 0 0 0 0
0 0 0 0 0 0 0 0 0 0 0 0 0 0 0 0 0 0 0 0 0 0 0 0 0 0 0 0 0 0 0 0 0 0 0 0 0 0 0 0 0 0 0 0 0 0 0 0 0
0 0 0 0 0 0 0 0 0 0 0 0 0 0 0 0 0 0 0 0 0 0 0 0 0 0 0 0 0 0 0 0 0 0 0 0 0 0 0 0 0 0 0 0 0 0 0 0 0
0 0 0 0 0 0 0 -0 0 0 0 0 0 0 0 0 0 0 0 0 0 0 0 0 0 0 0 0 0 0 0 0 0 0 0 0 0 0 0 0 0 0 0 0 0 0 0 0 0
0 0 0 0 0 0 0 -0 0 0 0 0 0 0 0 0 0 0 0 0 0 0 0 0 0 0 0 0 0 0 0 0 0 0 0 0 0 0 0 0 0 0 0 0 0 0 0 0 0
0 0 0 0 0 0 0 0 0 0 0 0 0 0 0 0 0 0 0 0 0 0 0 0 0 0 0 0 0 0 0 0 0 0 0 0 0 0 0 0 0 0 0 0 0 0 0 0 0
0 0 0 0 0 0 0 0 0 0 0 0 0 0 0 0 0 0 0 0 0 0 0 0 0 0 0 0 0 0 0 0 0 0 0 0 0 0 0 0 0 0 0 0 0 0 0 0 0
0 0 0 0 0 0 0 0 0 0 0 0 0 0 0 0 0 0 0 0 0 0 0 0 0 0 0 0 0 0 0 0 0 0 0 0 0 0 0 0 0 0 0 0 0 0 0 0 0
0 0 0 0 0 0 0 0 0 0 0 0 0 0 0 0 0 0 0 0 0 0 0 0 0 0 0 0 0 0 0 0 0 0 0 0 0 0 0 0 0 0 0 0 0 0 0 0 0
0 0 0 0 0 0 0 0 0 0 0 0 0 0 0 0 0 0 0 0 0 0 0 0 0 0 0 0 0 0 0 0 0 0 0 0 0 0 0 0 0 0 0 0 0 0 0 0 0
0 0 0 0 0 0 0 0 0 0 0 0 0 0 0 0 0 0 0 0 0 0 0 0 0 0 0 0 0 0 0 0 0 0 0 0 0 0 0 0 0 0 0 0 0 0 0 0 0
0 0 0 0 0 0 0 0 0 0 0 0 0 0 0 -0 -0 0 0 0 0 0 0 0 0 0 0 0 0 0 0 0 0 0 0 0 0 0 0 0 0 0 0 0 0 0 0 0 0
0 0 0 0 0 0 0 0 0 0 0 0 0 0 -0 -0 -0 0 0 0 0 0 0 0 0 0 0 0 0 0 0 0 0 0 0 0 0 0 0 0 0 0 0 0 0 0 0 0 0
Wind_Speed_500mb
8 8 5 1 7 9 8 10 4 5 3 4 11 8 13 10 9 9 12 26 29 35 32 30 30 27 21 28 27 24 24 22 21 19 13 11 10 11 10 10 11 11 10 10 12 14 12 10 10
8 8 5 5 8 3 10 10 11 9 11 20 15 15 3 7 10 7 25 31 34 34 32 32 31 29 25 24 26 27 26 25 23 17 14 14 14 16 15 14 15 14 15 19 19 19 17 16 16
9 6 2 8 6 8 8 10 11 7 16 13 8 4 8 7 19 12 22 27 33 38 34 32 32 30 26 24 24 24 21 22 22 18 16 15 15 14 12 11 11 11 15 17 18 18 17 18 20
8 4 5 6 11 14 11 11 12 13 7 9 9 4 7 17 6 14 26 28 34 43 39 36 35 32 30 28 27 24 24 24 19 17 14 13 13 13 12 11 11 11 12 13 13 15 16 16 17
8 5 5 2 10 11 11 11 35 11 11 14 17 7 9 15 24 19 20 29 37 46 43 40 37 34 32 31 29 26 24 19 17 14 13 12 11 10 8 6 4 4 5 6 8 10 11 10 11
4 4 4 7 11 9 8 25 22 14 13 13 11 5 10 18 28 26 25 30 38 42 43 42 40 37 35 32 30 27 23 21 19 17 15 13 11 8 6 4 2 0 4 8 11 13 13 15 15
7 7 8 8 11 10 11 30 15 18 19 18 11 11 12 28 27 29 29 33 40 45 46 43 42 40 37 35 33 29 27 25 23 20 18 16 14 12 8 4 2 5 7 9 11 13 15 15 14
1 7 6 8 5 11 5 20 5 22 20 12 26 14 12 25 34 35 36 39 43 47 49 48 47 45 43 40 35 31 29 27 26 24 21 20 17 15 10 6 4 3 7 11 14 17 19 19 16
4 5 6 10 6 8 4 6 8 9 11 24 28 29 20 13 37 41 45 49 51 53 55 55 53 52 49 44 40 37 33 30 28 26 25 22 20 17 14 12 10 10 11 14 16 20 23 24 25
9 7 16 13 4 7 7 15 12 9 15 19 34 46 45 32 40 50 53 55 56 57 58 59 59 57 53 48 45 43 40 38 35 32 29 26 24 22 20 16 12 10 12 15 17 20 22 24 26
13 12 11 17 14 11 9 10 16 14 14 40 48 56 53 47 50 56 59 61 57 54 58 59 61 61 58 54 50 49 46 44 41 37 35 32 29 25 21 17 15 15 15 16 19 20 22 26 27
8 32 33 27 32 13 9 9 14 38 66 40 35 36 48 60 66 66 65 63 64 64 62 61 62 65 63 59 57 53 51 49 45 42 39 35 31 28 24 22 21 20 21 21 21 23 26 27 29
14 17 30 47 39 42 31 35 24 46 62 51 52 52 52 53 63 69 69 66 68 69 69 67 67 67 67 66 62 59 56 52 48 46 43 39 35 32 29 26 25 26 24 24 24 25 26 26 27
8 15 29 31 36 31 13 23 13 81 64 58 61 74 71 74 77 68 74 79 80 73 74 72 72 70 69 71 68 65 61 57 55 51 46 43 41 38 36 32 29 28 26 26 27 28 28 29 29
15 16 17 30 37 19 16 20 25 89 64 63 53 58 67 81 74 82 79 83 81 79 77 78 75 76 74 73 71 70 66 65 60 55 52 49 47 44 40 37 35 32 29 29 30 30 30 30 30
8 4 9 1 14 9 26 31 27 49 45 57 61 63 64 70 78 79 81 81 81 80 83 78 79 80 78 76 74 74 71 69 64 61 58 55 53 49 45 41 38 34 32 33 33 32 31 31 31
4 12 16 28 31 12 15 23 24 33 41 53 57 63 67 75 79 80 82 82 82 81 80 79 82 83 82 77 73 75 74 74 70 66 63 61 57 53 49 45 43 38 37 37 36 35 34 34 34
17 11 12 16 5 8 16 31 31 54 29 44 54 65 74 82 93 83 85 84 81 83 85 81 81 85 84 77 74 75 76 77 74 72 69 65 62 57 55 52 48 42 40 39 36 35 35 37 39
3 12 14 16 11 9 20 35 39 60 46 50 70 86 92 94 107 93 90 89 88 87 90 93 90 88 87 87 84 85 86 85 84 79 72 70 66 63 60 57 52 47 43 40 38 35 34 35 39
24 34 43 37 39 14 32 47 35 27 47 62 61 77 94 98 102 105 108 96 86 85 93 99 99 94 89 91 88 89 86 86 84 79 77 75 72 69 66 62 56 50 47 44 39 35 34 35 35
26 27 37 35 12 12 22 44 31 24 61 77 84 90 97 98 104 106 102 91 82 79 85 98 100 97 93 90 91 92 87 84 85 88 86 84 78 73 70 64 60 55 51 45 40 36 35 34 33
32 26 30 27 5 21 6 51 13 14 29 26 55 78 81 91 99 104 102 90 81 78 78 89 99 98 93 92 92 97 96 92 93 93 92 87 81 77 74 69 64 59 54 49 43 39 38 37 34
26 11 12 6 9 9 14 15 8 23 23 26 33 61 82 82 90 92 91 78 67 73 74 80 95 98 94 93 93 94 96 91 90 90 89 86 82 80 76 72 67 65 60 55 50 44 41 39 36
3 6 8 8 3 25 24 22 3 12 20 13 21 64 74 74 80 91 88 62 60 65 71 82 95 99 95 96 93 93 92 93 93 92 88 85 85 83 80 76 73 69 64 59 52 47 43 40 37
8 10 8 7 1 24 18 18 46 13 12 22 26 55 63 71 79 91 77 47 55 67 74 82 93 100 97 95 92 93 93 91 89 90 87 85 84 89 88 81 78 74 67 61 55 50 45 41 38
21 22 13 16 23 37 8 19 23 25 25 46 61 67 77 89 89 82 66 42 55 65 73 81 89 96 97 96 95 95 95 95 91 90 88 85 85 84 79 78 77 73 69 65 60 54 46 41 40
8 13 32 3 3 3 13 28 27 13 16 15 32 61 72 82 79 61 51 50 51 55 66 75 85 93 95 96 97 100 99 99 95 91 87 86 85 82 78 75 76 74 72 68 62 55 48 44 44
15 8 4 3 6 15 19 13 28 31 27 20 20 32 54 58 57 62 54 52 45 50 59 66 77 87 90 95 98 100 101 102 102 99 94 87 85 82 79 76 78 77 74 69 64 58 52 48 47
3 8 9 5 11 28 36 30 56 32 18 15 22 39 37 50 60 44 42 40 41 44 47 55 64 82 90 94 96 99 102 106 106 105 101 97 90 83 77 77 81 82 77 73 67 60 56 52 49
9 23 25 23 26 23 33 38 54 63 49 37 52 61 62 58 64 46 37 32 38 38 45 48 55 70 75 86 97 98 100 101 107 107 104 101 96 89 79 77 80 81 79 74 69 65 59 53 51
Wind_Direction_500mb
183 203 217 358 39 58 272 267 217 169 121 141 141 166 176 131 164 207 180 178 184 190 194 192 196 199 189 179 187 189 194 198 205 197 197 198 218 239 228 230 240 248 260 277 283 280 292 295 290
172 193 174 90 89 27 269 256 201 207 161 133 123 118 121 203 177 193 174 185 193 195 192 189 192 198 201 196 195 199 202 197 204 213 213 222 238 251 257 254 248 252 258 259 263 271 275 270 269
175 181 152 104 123 197 229 237 206 201 167 181 146 175 179 210 200 209 199 203 192 192 194 194 193 197 201 203 203 207 210 213 218 225 231 238 237 241 246 251 255 254 254 266 273 273 269 265 265
171 175 72 95 229 258 237 240 190 154 184 183 158 203 234 202 193 199 205 199 192 191 195 194 197 199 205 210 212 211 211 224 226 226 224 224 231 239 250 257 259 260 270 275 277 282 287 282 270
168 134 68 309 258 256 248 234 178 173 184 188 179 242 234 227 218 206 210 203 199 194 197 199 202 205 208 209 208 210 218 222 228 229 235 239 240 242 232 230 238 268 293 309 323 325 325 319 307
130 103 81 230 246 248 249 192 177 195 200 178 192 184 243 227 220 219 217 209 204 205 204 205 207 210 210 205 204 206 210 213 218 219 224 230 229 224 216 205 187 343 350 348 344 340 338 337 334
126 97 220 232 254 290 223 188 196 200 188 212 203 175 238 225 211 216 219 214 209 209 214 214 214 211 208 208 207 207 208 207 209 208 204 202 203 207 212 226 308 349 351 345 341 336 334 335 336
218 102 281 255 247 269 250 178 236 199 222 216 202 221 249 245 207 210 216 217 215 215 216 217 218 215 216 215 214 215 212 211 205 201 201 203 205 206 210 217 247 300 315 318 326 329 330 332 329
208 61 251 251 219 265 201 238 225 234 227 204 211 240 246 238 207 209 215 217 219 220 220 220 219 218 216 217 217 215 216 214 209 206 207 210 211 212 216 226 246 275 300 313 326 328 328 326 323
165 152 226 220 238 240 243 223 252 218 227 231 234 237 243 239 218 217 221 225 225 225 223 224 223 222 223 220 219 217 216 214 213 214 216 217 219 222 228 242 261 278 293 305 310 312 317 318 313
190 215 223 266 268 267 242 245 237 220 248 236 238 247 242 238 231 230 233 236 243 234 231 229 228 226 226 224 220 218 218 217 217 216 217 218 223 228 237 248 263 273 280 285 292 301 304 308 309
214 241 236 266 282 277 236 251 242 225 253 264 267 271 256 244 241 242 241 244 243 239 237 235 232 229 227 224 224 223 221 220 219 220 220 224 227 232 238 243 249 261 269 277 286 295 301 308 310
226 249 247 252 257 272 273 252 249 259 264 259 259 255 249 248 251 250 250 249 243 242 240 237 234 232 230 227 226 224 223 224 223 223 223 226 230 234 239 243 251 258 266 275 284 293 302 308 309
279 265 269 271 256 262 224 271 239 272 276 264 256 252 251 252 255 253 248 248 245 244 243 240 238 236 232 232 229 228 226 224 225 227 229 231 233 235 238 243 250 255 259 268 277 285 294 303 307
291 306 306 256 256 233 213 284 226 263 267 273 262 254 252 252 250 252 256 255 255 252 245 242 240 238 235 233 231 228 227 227 227 230 231 233 235 237 239 244 249 254 262 269 277 284 293 301 309
311 333 312 301 148 227 162 263 252 267 257 260 264 263 254 252 253 256 255 253 254 250 247 244 240 239 236 234 231 230 228 229 229 230 232 233 234 236 239 243 248 252 259 267 274 281 289 299 310
282 244 225 293 200 162 183 246 270 256 240 252 262 269 268 259 252 252 255 254 253 253 250 246 241 238 236 233 231 231 230 231 230 230 232 233 233 235 238 241 245 250 257 264 272 279 288 297 306
222 224 253 244 242 186 222 248 272 269 238 247 262 265 266 266 259 255 256 259 255 252 252 247 244 238 233 231 229 230 230 232 232 232 232 233 234 235 238 240 243 247 254 261 268 277 286 295 303
206 228 243 256 247 225 230 236 248 265 269 259 264 265 262 260 266 264 261 259 257 251 247 243 238 236 229 225 225 226 229 229 230 231 233 233 234 236 237 239 241 244 252 259 266 276 288 298 305
243 257 262 270 265 214 260 259 249 250 262 261 255 263 263 264 270 268 266 266 261 256 251 242 237 236 231 228 228 230 232 232 234 235 235 235 235 235 236 238 240 241 246 253 263 273 285 293 303
229 233 253 256 301 249 289 271 251 244 250 262 263 257 263 263 267 268 268 269 265 252 246 243 238 235 230 227 225 228 231 233 233 233 234 234 234 234 236 237 239 241 245 250 258 268 277 286 297
257 227 254 261 283 274 126 294 196 231 244 243 253 261 257 264 266 267 268 267 260 257 250 241 236 233 229 228 228 228 230 229 231 233 234 234 233 235 236 237 238 240 244 248 253 259 268 277 286
253 167 233 218 215 337 182 266 161 203 250 247 253 254 267 273 272 272 269 266 261 252 248 242 233 231 228 229 231 230 232 234 236 237 236 236 236 236 237 238 238 239 241 244 248 255 263 271 278
95 59 37 65 122 265 203 210 97 179 213 241 252 258 265 269 272 274 276 263 252 242 239 238 230 228 227 229 231 232 232 235 235 236 237 236 237 237 237 237 238 238 239 243 248 253 259 266 272
132 92 298 320 9 255 191 216 251 274 216 215 238 258 263 270 267 270 274 254 230 230 231 232 229 226 225 229 231 231 232 235 237 238 239 238 236 235 236 235 236 236 238 240 243 249 257 266 273
207 189 182 206 253 270 109 249 265 220 238 241 249 264 270 268 271 273 267 246 246 231 233 233 228 226 227 230 231 231 231 234 236 239 239 241 242 241 240 238 237 237 237 237 239 244 250 260 269
175 177 233 317 108 5 248 275 287 229 269 310 282 285 275 275 277 272 254 240 244 231 232 235 232 230 230 234 232 232 232 234 235 238 239 241 243 243 241 241 240 237 236 237 239 242 246 253 261
186 165 115 184 206 248 268 250 260 284 285 290 295 304 320 322 305 274 251 241 235 237 236 236 235 238 238 237 236 236 237 238 238 239 240 240 244 243 240 239 238 235 236 237 238 240 244 249 255
184 247 229 184 197 246 261 264 278 278 274 261 298 299 323 327 317 306 264 248 244 241 245 242 241 241 239 241 241 241 242 242 242 243 244 243 244 245 241 237 235 235 236 237 236 238 243 248 254
271 265 242 237 246 235 254 257 263 269 270 272 288 291 295 309 311 285 262 251 251 255 252 255 253 247 247 244 243 244 245 246 246 246 246 246 245 243 241 236 234 235 237 237 238 239 243 246 252
Wind_Speed_850mb
8 8 5 1 7 9 8 10 4 5 3 4 11 8 13 10 9 9 12 26 29 35 32 30 30 27 21 28 27 24 24 22 21 19 13 11 10 11 10 10 11 11 10 10 12 14 12 10 10
8 8 5 5 8 3 10 10 11 9 11 20 15 15 3 7 10 7 25 31 34 34 32 32 31 29 25 24 26 27 26 25 23 17 14 14 14 16 15 14 15 14 15 19 19 19 17 16 16
9 6 2 8 6 8 8 10 11 7 16 13 8 4 8 7 19 12 22 27 33 38 34 32 32 30 26 24 24 24 21 22 22 18 16 15 15 14 12 11 11 11 15 17 18 18 17 18 20
8 4 5 6 11 14 11 11 12 13 7 9 9 4 7 17 6 14 26 28 34 43 39 36 35 32 30 28 27 24 24 24 19 17 14 13 13 13 12 11 11 11 12 13 13 15 16 16 17
8 5 5 2 10 11 11 11 35 11 11 14 17 7 9 15 24 19 20 29 37 46 43 40 37 34 32 31 29 26 24 19 17 14 13 12 11 10 8 6 4 4 5 6 8 10 11 10 11
4 4 4 7 11 9 8 25 22 14 13 13 11 5 10 18 28 26 25 30 38 42 43 42 40 37 35 32 30 27 23 21 19 17 15 13 11 8 6 4 2 0 4 8 11 13 13 15 15
7 7 8 8 11 10 11 30 15 18 19 18 11 11 12 28 27 29 29 33 40 45 46 43 42 40 37 35 33 29 27 25 23 20 18 16 14 12 8 4 2 5 7 9 11 13 15 15 14
1 7 6 8 5 11 5 20 5 22 20 12 26 14 12 25 34 35 36 39 43 47 49 48 47 45 43 40 35 31 29 27 26 24 21 20 17 15 10 6 4 3 7 11 14 17 19 19 16
4 5 6 10 6 8 4 6 8 9 11 24 28 29 20 13 37 41 45 49 51 53 55 55 53 52 49 44 40 37 33 30 28 26 25 22 20 17 14 12 10 10 11 14 16 20 23 24 25
9 7 16 13 4 7 7 15 12 9 15 19 34 46 45 32 40 50 53 55 56 57 58 59 59 57 53 48 45 43 40 38 35 32 29 26 24 22 20 16 12 10 12 15 17 20 22 24 26
13 12 11 17 14 11 9 10 16 14 14 40 48 56 53 47 50 56 59 61 57 54 58 59 61 61 58 54 50 49 46 44 41 37 35 32 29 25 21 17 15 15 15 16 19 20 22 26 27
8 32 33 27 32 13 9 9 14 38 66 40 35 36 48 60 66 66 65 63 64 64 62 61 62 65 63 59 57 53 51 49 45 42 39 35 31 28 24 22 21 20 21 21 21 23 26 27 29
14 17 30 47 39 42 31 35 24 46 62 51 52 52 52 53 63 69 69 66 68 69 69 67 67 67 67 66 62 59 56 52 48 46 43 39 35 32 29 26 25 26 24 24 24 25 26 26 27
8 15 29 31 36 31 13 23 13 81 64 58 61 74 71 74 77 68 74 79 80 73 74 72 72 70 69 71 68 65 61 57 55 51 46 43 41 38 36 32 29 28 26 26 27 28 28 29 29
15 16 17 30 37 19 16 20 25 89 64 63 53 58 67 81 74 82 79 83 81 79 77 78 75 76 74 73 71 70 66 65 60 55 52 49 47 44 40 37 35 32 29 29 30 30 30 30 30
8 4 9 1 14 9 26 31 27 49 45 57 61 63 64 70 78 79 81 81 81 80 83 78 79 80 78 76 74 74 71 69 64 61 58 55 53 49 45 41 38 34 32 33 33 32 31 31 31
4 12 16 28 31 12 15 23 24 33 41 53 57 63 67 75 79 80 82 82 82 81 80 79 82 83 82 77 73 75 74 74 70 66 63 61 57 53 49 45 43 38 37 37 36 35 34 34 34
17 11 12 16 5 8 16 31 31 54 29 44 54 65 74 82 93 83 85 84 81 83 85 81 81 85 84 77 74 75 76 77 74 72 69 65 62 57 55 52 48 42 40 39 36 35 35 37 39
3 12 14 16 11 9 20 35 39 60 46 50 70 86 92 94 107 93 90 89 88 87 90 93 90 88 87 87 84 85 86 85 84 79 72 70 66 63 60 57 52 47 43 40 38 35 34 35 39
24 34 43 37 39 14 32 47 35 27 47 62 61 77 94 98 102 105 108 96 86 85 93 99 99 94 89 91 88 89 86 86 84 79 77 75 72 69 66 62 56 50 47 44 39 35 34 35 35
26 27 37 35 12 12 22 44 31 24 61 77 84 90 97 98 104 106 102 91 82 79 85 98 100 97 93 90 91 92 87 84 85 88 86 84 78 73 70 64 60 55 51 45 40 36 35 34 33
32 26 30 27 5 21 6 51 13 14 29 26 55 78 81 91 99 104 102 90 81 78 78 89 99 98 93 92 92 97 96 92 93 93 92 87 81 77 74 69 64 59 54 49 43 39 38 37 34
26 11 12 6 9 9 14 15 8 23 23 26 33 61 82 82 90 92 91 78 67 73 74 80 95 98 94 93 93 94 96 91 90 90 89 86 82 80 76 72 67 65 60 55 50 44 41 39 36
3 6 8 8 3 25 24 22 3 12 20 13 21 64 74 74 80 91 88 62 60 65 71 82 95 99 95 96 93 93 92 93 93 92 88 85 85 83 80 76 73 69 64 59 52 47 43 40 37
8 10 8 7 1 24 18 18 46 13 12 22 26 55 63 71 79 91 77 47 55 67 74 82 93 100 97 95 92 93 93 91 89 90 87 85 84 89 88 81 78 74 67 61 55 50 45 41 38
21 22 13 16 23 37 8 19 23 25 25 46 61 67 77 89 89 82 66 42 55 65 73 81 89 96 97 96 95 95 95 95 91 90 88 85 85 84 79 78 77 73 69 65 60 54 46 41 40
8 13 32 3 3 3 13 28 27 13 16 15 32 61 72 82 79 61 51 50 51 55 66 75 85 93 95 96 97 100 99 99 95 91 87 86 85 82 78 75 76 74 72 68 62 55 48 44 44
15 8 4 3 6 15 19 13 28 31 27 20 20 32 54 58 57 62 54 52 45 50 59 66 77 87 90 95 98 100 101 102 102 99 94 87 85 82 79 76 78 77 74 69 64 58 52 48 47
3 8 9 5 11 28 36 30 56 32 18 15 22 39 37 50 60 44 42 40 41 44 47 55 64 82 90 94 96 99 102 106 106 105 101 97 90 83 77 77 81 82 77 73 67 60 56 52 49
9 23 25 23 26 23 33 38 54 63 49 37 52 61 62 58 64 46 37 32 38 38 45 48 55 70 75 86 97 98 100 101 107 107 104 101 96 89 79 77 80 81 79 74 69 65 59 53 51
Wind_Direction_850mb
183 203 217 358 39 58 272 267 217 169 121 141 141 166 176 131 164 207 180 178 184 190 194 192 196 199 189 179 187 189 194 198 205 197 197 198 218 239 228 230 240 248 260 277 283 280 292 295 290
172 193 174 90 89 27 269 256 201 207 161 133 123 118 121 203 177 193 174 185 193 195 192 189 192 198 201 196 195 199 202 197 204 213 213 222 238 251 257 254 248 252 258 259 263 271 275 270 269
175 181 152 104 123 197 229 237 206 201 167 181 146 175 179 210 200 209 199 203 192 192 194 194 193 197 201 203 203 207 210 213 218 225 231 238 237 241 246 251 255 254 254 266 273 273 269 265 265
171 175 72 95 229 258 237 240 190 154 184 183 158 203 234 202 193 199 205 199 192 191 195 194 197 199 205 210 212 211 211 224 226 226 224 224 231 239 250 257 259 260 270 275 277 282 287 282 270
168 134 68 309 258 256 248 234 178 173 184 188 179 242 234 227 218 206 210 203 199 194 197 199 202 205 208 209 208 210 218 222 228 229 235 239 240 242 232 230 238 268 293 309 323 325 325 319 307
130 103 81 230 246 248 249 192 177 195 200 178 192 184 243 227 220 219 217 209 204 205 204 205 207 210 210 205 204 206 210 213 218 219 224 230 229 224 216 205 187 343 350 348 344 340 338 337 334
126 97 220 232 254 290 223 188 196 200 188 212 203 175 238 225 211 216 219 214 209 209 214 214 214 211 208 208 207 207 208 207 209 208 204 202 203 207 212 226 308 349 351 345 341 336 334 335 336
218 102 281 255 247 269 250 178 236 199 222 216 202 221 249 245 207 210 216 217 215 215 216 217 218 215 216 215 214 215 212 211 205 201 201 203 205 206 210 217 247 300 315 318 326 329 330 332 329
208 61 251 251 219 265 201 238 225 234 227 204 211 240 246 238 207 209 215 217 219 220 220 220 219 218 216 217 217 215 216 214 209 206 207 210 211 212 216 226 246 275 300 313 326 328 328 326 323
165 152 226 220 238 240 243 223 252 218 227 231 234 237 243 239 218 217 221 225 225 225 223 224 223 222 223 220 219 217 216 214 213 214 216 217 219 222 228 242 261 278 293 305 310 312 317 318 313
190 215 223 266 268 267 242 245 237 220 248 236 238 247 242 238 231 230 233 236 243 234 231 229 228 226 226 224 220 218 218 217 217 216 217 218 223 228 237 248 263 273 280 285 292 301 304 308 309
214 241 236 266 282 277 236 251 242 225 253 264 267 271 256 244 241 242 241 244 243 239 237 235 232 229 227 224 224 223 221 220 219 220 220 224 227 232 238 243 249 261 269 277 286 295 301 308 310
226 249 247 252 257 272 273 252 249 259 264 259 259 255 249 248 251 250 250 249 243 242 240 237 234 232 230 227 226 224 223 224 223 223 223 226 230 234 239 243 251 258 266 275 284 293 302 308 309
279 265 269 271 256 262 224 271 239 272 276 264 256 252 251 252 255 253 248 248 245 244 243 240 238 236 232 232 229 228 226 224 225 227 229 231 233 235 238 243 250 255 259 268 277 285 294 303 307
291 306 306 256 256 233 213 284 226 263 267 273 262 254 252 252 250 252 256 255 255 252 245 242 240 238 235 233 231 228 227 227 227 230 231 233 235 237 239 244 249 254 262 269 277 284 293 301 309
311 333 312 301 148 227 162 263 252 267 257 260 264 263 254 252 253 256 255 253 254 250 247 244 240 239 236 234 231 230 228 229 229 230 232 233 234 236 239 243 248 252 259 267 274 281 289 299 310
282 244 225 293 200 162 183 246 270 256 240 252 262 269 268 259 252 252 255 254 253 253 250 246 241 238 236 233 231 231 230 231 230 230 232 233 233 235 238 241 245 250 257 264 272 279 288 297 306
222 224 253 244 242 186 222 248 272 269 238 247 262 265 266 266 259 255 256 259 255 252 252 247 244 238 233 231 229 230 230 232 232 232 232 233 234 235 238 240 243 247 254 261 268 277 286 295 303
206 228 243 256 247 225 230 236 248 265 269 259 264 265 262 260 266 264 261 259 257 251 247 243 238 236 229 225 225 226 229 229 230 231 233 233 234 236 237 239 241 244 252 259 266 276 288 298 305
243 257 262 270 265 214 260 259 249 250 262 261 255 263 263 264 270 268 266 266 261 256 251 242 237 236 231 228 228 230 232 232 234 235 235 235 235 235 236 238 240 241 246 253 263 273 285 293 303
229 233 253 256 301 249 289 271 251 244 250 262 263 257 263 263 267 268 268 269 265 252 246 243 238 235 230 227 225 228 231 233 233 233 234 234 234 234 236 237 239 241 245 250 258 268 277 286 297
257 227 254 261 283 274 126 294 196 231 244 243 253 261 257 264 266 267 268 267 260 257 250 241 236 233 229 228 228 228 230 229 231 233 234 234 233 235 236 237 238 240 244 248 253 259 268 277 286
253 167 233 218 215 337 182 266 161 203 250 247 253 254 267 273 272 272 269 266 261 252 248 242 233 231 228 229 231 230 232 234 236 237 236 236 236 236 237 238 238 239 241 244 248 255 263 271 278
95 59 37 65 122 265 203 210 97 179 213 241 252 258 265 269 272 274 276 263 252 242 239 238 230 228 227 229 231 232 232 235 235 236 237 236 237 237 237 237 238 238 239 243 248 253 259 266 272
132 92 298 320 9 255 191 216 251 274 216 215 238 258 263 270 267 270 274 254 230 230 231 232 229 226 225 229 231 231 232 235 237 238 239 238 236 235 236 235 236 236 238 240 243 249 257 266 273
207 189 182 206 253 270 109 249 265 220 238 241 249 264 270 268 271 273 267 246 246 231 233 233 228 226 227 230 231 231 231 234 236 239 239 241 242 241 240 238 237 237 237 237 239 244 250 260 269
175 177 233 317 108 5 248 275 287 229 269 310 282 285 275 275 277 272 254 240 244 231 232 235 232 230 230 234 232 232 232 234 235 238 239 241 243 243 241 241 240 237 236 237 239 242 246 253 261
186 165 115 184 206 248 268 250 260 284 285 290 295 304 320 322 305 274 251 241 235 237 236 236 235 238 238 237 236 236 237 238 238 239 240 240 244 243 240 239 238 235 236 237 238 240 244 249 255
184 247 229 184 197 246 261 264 278 278 274 261 298 299 323 327 317 306 264 248 244 241 245 242 241 241 239 241 241 241 242 242 242 243 244 243 244 245 241 237 235 235 236 237 236 238 243 248 254
271 265 242 237 246 235 254 257 263 269 270 272 288 291 295 309 311 285 262 251 251 255 252 255 253 247 247 244 243 244 245 246 246 246 246 246 245 243 241 236 234 235 237 237 238 239 243 246 252